Weather History for Lafayette, LA

Change the Weather History Date:

Sunday, February 9, 2014

  Actual Average Record
Temperature  
Mean Temperature 58 °F 55 °F  
Max Temperature 70 °F 64 °F 83 °F (1911)
Min Temperature 45 °F 45 °F 19 °F (1895)
Degree Days  
Heating Degree Days 7 11  
Month to date heating degree days 141 104  
Since 1 July heating degree days 1461 1060  
Growing Degree Days 7 (Base 50)    
Moisture  
Dew Point 52 °F    
Average Humidity 80    
Maximum Humidity 100    
Minimum Humidity 59    
Precipitation  
Precipitation 0.00 in 0.17 in 1.28 in (1984)
Month to date precipitation 1.30 1.53  
Year to date precipitation 2.93 7.20  
Snow  
Snow 0.00 in 0.00 in 2.00 in (1973)
Month to date snowfall T 0.0  
Since 1 July snowfall 0.8 0.0  
Snow Depth 0.00 in    
Sea Level Pressure  
Sea Level Pressure 30.11 in    
Wind  
Wind Speed 3 mph (WSW)    
Max Wind Speed 13 mph    
Max Gust Speed 18 mph    
Visibility 8 miles    
Events      
T = Trace of Precipitation, MM = Missing Value Source: NWS Daily Summary

Daily Weather History Graph

Daily Weather History Graph

Search for Another Location

Airport:

Trip Planner

Search our weather history database for the weather conditions in past years. The results will help you decide how hot, cold, wet, or windy it might be!

Date:

Astronomy

Feb. 09, 2014 Rise Set
Actual Time 6:52 AM CST 5:51 PM CST
Civil Twilight 6:28 AM CST 6:16 PM CST
Nautical Twilight 5:59 AM CST 6:44 PM CST
Astronomical Twilight 5:31 AM CST 7:12 PM CST
Moon 1:39 PM CST (2/9) 2:51 AM CST (2/9)
Length of Visible Light 11h 48m
Length of Day
10h 58m
Waxing Gibbous, 77% of the Moon is Illuminated
Feb 9
Waxing Gibbous
Feb 14
Full
Feb 22
Last Quarter
Mar 1
New
Mar 8
First Quarter

Hourly Weather History & Observations

Time (CST) Temp. Dew Point Humidity Pressure Visibility Wind Dir Wind Speed Gust Speed Precip Events Conditions
12:53 AM 52.0 °F 48.0 °F 86% 30.15 in 7.0 mi WSW 3.5 mph - N/A   Overcast
1:05 AM 51.1 °F 48.0 °F 89% 30.15 in 7.0 mi Calm Calm - N/A   Overcast
1:53 AM 48.0 °F 46.0 °F 93% 30.13 in 7.0 mi Calm Calm - N/A   Clear
2:53 AM 46.0 °F 45.0 °F 96% 30.12 in 4.0 mi Calm Calm - N/A   Clear
3:22 AM 46.0 °F 45.0 °F 96% 30.12 in 5.0 mi Calm Calm - N/A   Mostly Cloudy
3:51 AM 46.4 °F 44.6 °F 93% 30.11 in 5.0 mi Calm Calm - N/A   Mostly Cloudy
3:53 AM 46.9 °F 45.0 °F 93% 30.11 in 5.0 mi Calm Calm - N/A   Mostly Cloudy
4:28 AM 46.0 °F 45.0 °F 96% 30.11 in 3.0 mi Calm Calm - N/A   Mostly Cloudy
4:41 AM 46.9 °F 46.0 °F 97% 30.11 in 5.0 mi NNW 3.5 mph - N/A   Mostly Cloudy
4:53 AM 46.9 °F 46.0 °F 97% 30.11 in 5.0 mi Calm Calm - N/A   Overcast
5:53 AM 46.9 °F 46.0 °F 97% 30.12 in 4.0 mi Calm Calm - N/A   Mostly Cloudy
6:14 AM 46.9 °F 45.0 °F 93% 30.12 in 4.0 mi Calm Calm - N/A   Overcast
6:38 AM 46.9 °F 46.0 °F 97% 30.12 in 4.0 mi Calm Calm - N/A   Overcast
6:53 AM 46.9 °F 45.0 °F 93% 30.13 in 5.0 mi Calm Calm - N/A   Overcast
7:00 AM 46.9 °F 45.0 °F 93% 30.13 in 5.0 mi Calm Calm - N/A   Overcast
7:53 AM 48.9 °F 46.9 °F 93% 30.16 in 4.0 mi NE 3.5 mph - N/A   Overcast
8:53 AM 52.0 °F 48.0 °F 86% 30.18 in 4.0 mi NNE 3.5 mph - N/A   Overcast
9:53 AM 55.0 °F 50.0 °F 83% 30.18 in 6.0 mi Calm Calm - N/A   Haze
10:29 AM 57.0 °F 52.0 °F 83% 30.18 in 8.0 mi Calm Calm - N/A   Mostly Cloudy
10:53 AM 59.0 °F 53.1 °F 81% 30.17 in 10.0 mi Calm Calm - N/A   Partly Cloudy
11:53 AM 64.0 °F 53.1 °F 67% 30.12 in 10.0 mi Variable 5.8 mph - N/A   Scattered Clouds
12:10 PM 66.0 °F 54.0 °F 65% 30.12 in 10.0 mi SW 9.2 mph - N/A   Mostly Cloudy
12:33 PM 66.9 °F 54.0 °F 63% 30.10 in 10.0 mi SW 9.2 mph 18.4 mph N/A   Scattered Clouds
12:53 PM 66.9 °F 54.0 °F 63% 30.09 in 10.0 mi SW 6.9 mph - N/A   Scattered Clouds
1:53 PM 68.0 °F 54.0 °F 61% 30.08 in 10.0 mi West 5.8 mph - N/A   Mostly Cloudy
2:29 PM 66.9 °F 55.0 °F 66% 30.08 in 10.0 mi West 8.1 mph - N/A   Overcast
2:53 PM 66.0 °F 55.9 °F 70% 30.08 in 10.0 mi West 9.2 mph - N/A   Overcast
3:53 PM 64.9 °F 57.0 °F 75% 30.06 in 10.0 mi West 9.2 mph - N/A   Overcast
4:15 PM 64.0 °F 57.0 °F 78% 30.06 in 10.0 mi WSW 6.9 mph - N/A   Mostly Cloudy
4:25 PM 64.0 °F 57.0 °F 78% 30.06 in 10.0 mi WSW 6.9 mph - N/A   Mostly Cloudy
4:53 PM 64.0 °F 57.0 °F 78% 30.06 in 10.0 mi WSW 4.6 mph - N/A   Overcast
5:22 PM 63.0 °F 55.9 °F 78% 30.07 in 10.0 mi West 3.5 mph - N/A   Mostly Cloudy
5:50 PM 62.6 °F 57.2 °F 82% 30.07 in 10.0 mi SW 4.6 mph - N/A   Overcast
5:53 PM 63.0 °F 57.0 °F 81% 30.07 in 10.0 mi SW 4.6 mph - N/A   Overcast
6:53 PM 63.0 °F 57.0 °F 81% 30.07 in 10.0 mi Calm Calm - N/A   Overcast
7:18 PM 61.0 °F 55.9 °F 83% 30.08 in 10.0 mi SW 3.5 mph - N/A   Mostly Cloudy
7:53 PM 62.1 °F 57.0 °F 84% 30.08 in 10.0 mi Calm Calm - N/A   Overcast
8:32 PM 60.1 °F 55.9 °F 86% 30.10 in 10.0 mi SSW 3.5 mph - N/A   Mostly Cloudy
8:53 PM 60.1 °F 55.9 °F 86% 30.08 in 10.0 mi SSE 3.5 mph - N/A   Mostly Cloudy
9:53 PM 59.0 °F 55.9 °F 90% 30.08 in 10.0 mi Calm Calm - N/A   Mostly Cloudy
10:53 PM 57.9 °F 55.9 °F 93% 30.08 in 10.0 mi Calm Calm - N/A   Overcast
11:53 PM 59.0 °F 55.9 °F 90% 30.08 in 10.0 mi SSE 4.6 mph - N/A   Overcast